Regional Weather Roundup
Issued by NWS Grand Forks, ND

Home | Current Version | Previous Version | Text Only | Print | Product List | Glossary Off
Versions: 1 2 3 4 5 6 7 8 9 10 11 12 13 14 15 16 17 18 19 20 21 22 23 24 25 26 27 28 29 30 31 32 33 34 35 36 37 38 39 40 41 42 43 44 45 46 47 48 49 50

000
ASUS43 KFGF 200110
RWRFGF
PRAIRIE TO PINES  WEATHER ROUNDUP
NATIONAL WEATHER SERVICE EASTERN NORTH DAKOTA/GRAND FORKS ND
700 PM CST SUN NOV 19 2017

 **SATELLITE DATA USED TO AUGMENT SKY COVER AT AUTOMATED STATIONS**
 *****  WEATHER ACROSS EASTERN NORTH DAKOTA  *****

CITY           SKY/WX    TMP DP  RH WIND       PRES   REMARKS
GRAND FORKS    FAIR      22  21  96 CALM      29.76F
GRAND FRKS AFB FAIR      19  18  96 CALM      29.76F
GRAND FRKS NWS   N/A     23 N/A N/A MISG        N/A
DEVILS LAKE    FAIR      24  22  91 CALM      29.72F
FARGO          FAIR      27  22  81 CALM      29.77S
WAHPETON ARPT  NOT AVBL
$$

 ***** WEATHER ACROSS CENTRAL AND WESTERN NORTH DAKOTA  *****

CITY           SKY/WX    TMP DP  RH WIND       PRES   REMARKS
BISMARCK       FAIR      33  24  69 CALM      29.72F
MINOT          FAIR      31  24  75 S10       29.64F WCI  22
JAMESTOWN      FAIR      28  23  81 S3        29.73F
MINOT AFB      FAIR      27  22  83 S10       29.63F WCI  17
GARRISON         N/A     30  25  81 SW5       29.68F
WILLISTON      FAIR      31  20  63 S6        29.62F
DICKINSON      FAIR      29  19  66 S10       29.66F WCI  20
HETTINGER      FAIR      36  18  48 S6        29.73F
$$

 *****  OTHER AIRPORT OBSERVATIONS IN OUR AREA  *****

CITY           SKY/WX    TMP DP  RH WIND       PRES   REMARKS
WALHALLA       FAIR      18  18 100 CALM      29.75F
GRAFTON AIRPOR NOT AVBL
VALLEY CITY AR NOT AVBL
CANDO          FAIR      23  23 100 SE6       29.71F WCI  16
CAVALIER APRT  FAIR      16  14  93 CALM      29.76F FOG
GWINNER          N/A     28  21  74 SW9       29.76F WCI  20
SHEYENNE NWR     N/A     27  20  76 CALM      29.95S
ROLLA          FAIR      23  21  93 SW9       29.68F WCI  13
 ***** THE ABOVE OBSERVATIONS ARE NON NWS ARE NOT QUALITY
       CONTROLLED AND MAY MIS-REPORT RAIN FOR SNOW...
$$

  *****  WEATHER ACROSS NORTHERN MINNESOTA  *****

CITY           SKY/WX    TMP DP  RH WIND       PRES   REMARKS
FLAG ISLAND    FAIR      19  16  86 S3        29.76F
WARROAD        FAIR      19  16  86 E3        29.77S
ROSEAU         FAIR      19  16  86 CALM      29.76F
HALLOCK        FAIR      16  12  86 CALM      29.76F
THF RVR FALLS  FAIR      21  17  84 CALM      29.76F
BAUDETTE       FAIR      17  13  84 SE5       29.76F WCI  10
WASKISH        FAIR      19  14  79 SE5       29.76F WCI  13
CROOKSTON      FAIR      27  25  93 SE3       29.77F
STEPHEN NDAWN    N/A     18  16  93 E1          N/A
GREENBUSH NDAW   N/A     19  16  86 CALM        N/A
$$
  *****  WEATHER ACROSS CENTRAL AND WEST MINNESOTA  *****

CITY           SKY/WX    TMP DP  RH WIND       PRES   REMARKS
FOSSTON        FAIR      23  19  86 S3        29.76F
BEMIDJI        FAIR      22  18  82 CALM      29.75F
PARK RAPIDS    FAIR      29  22  75 S3        29.76S
ELBOW LAKE     FAIR      32  23  69 S5        29.78F
WADENA         FAIR      25  21  86 CALM      29.77S
DETROIT LAKES  FAIR      32  27  80 CALM      29.77F
MOORHEAD       FAIR      28  19  69 CALM      29.78S
FERGUS FALLS   FAIR      34  25  69 SE3       29.80F
MORRIS MN      FAIR      34  25  69 SW7       29.79F
STAPLES        FAIR      23  19  86 CALM      29.78S
$$
  *****  WEATHER ELSEWHERE ACROSS MINNESOTA  *****

CITY           SKY/WX    TMP DP  RH WIND       PRES   REMARKS
DULUTH         FAIR      19  15  84 CALM      29.80F
INTRNTL FALLS  FAIR      15  10  80 CALM      29.79F
ELY            FAIR      16  12  86 SW5       29.80F WCI   9
CLOQUET        FAIR      21  16  79 E3        29.80F
WHEATON        FAIR      36  23  60 S8        29.80F
BRAINERD       FAIR      26  20  77 S6        29.79F WCI  19
HIBBING        FAIR      13  10  88 CALM      29.80S
ALEXANDRIA     FAIR      34  25  69 SW9       29.79F
SAINT CLOUD    FAIR      28  23  81 S5        29.80F WCI  23
MINNEAPOLIS    MOCLDY    38  26  62 SW5       29.85S
$$

  *****  WEATHER ACROSS SOUTH DAKOTA  *****

CITY           SKY/WX    TMP DP  RH WIND       PRES   REMARKS
SIOUX FALLS    MOCLDY    41  26  55 CALM      29.86F
BROOKINGS      FAIR      39  25  57 SW7       29.84F
WATERTOWN      FAIR      35  25  66 SW8       29.80F
HURON          FAIR      41  24  51 S7        29.81F
SISSETON         N/A     40  24  53 W12       29.77F
ABERDEEN       FAIR      35  22  58 CALM      29.80F
MITCHELL       FAIR      40  25  55 S8        29.84F
PIERRE         FAIR      39  24  55 E3        29.78F
MOBRIDGE       FAIR      36  24  62 SE8       29.75F
RAPID CITY     FAIR      36  18  48 N3        29.76S
$$

  *****  SOME WEATHER IN NEARBY STATES *****

CITY           SKY/WX    TMP DP  RH WIND       PRES   REMARKS
GLASGOW MT     FAIR      37  22  54 S10       29.57F
GREAT FALLS MT FAIR      46   8  21 SW26G39   29.62S
CHEYENNE WY    FAIR      41  10  28 SW15      29.95F
SCOTTSBLUFF NE FAIR      39  10  30 W8        29.89F
OMAHA NE       FAIR      41  26  55 S12       29.96F
DES MOINES IA  FAIR      39  26  59 S9        30.01S
DAVENPORT IA   FAIR      31  21  66 SW9       30.09F WCI  23
CHICAGO IL     FAIR      31  20  63 W8        30.06S WCI  23
EAU CLAIRE WI  FAIR      25  15  66 S5        29.88F WCI  19
LA CROSSE WI   FAIR      34  23  64 SE9       29.94F
$$

  *****  SOME NATIONAL WEATHER *****

CITY           SKY/WX    TMP DP  RH WIND       PRES   REMARKS
LA GUARDIA NY  MOCLDY    46  27  47 NW14      29.71R
RALEIGH NC     FAIR      44  24  45 VRB5      30.01R
ATLANTA GA     FAIR      45  31  58 NW9       30.11R
NEW ORLEANS LA FAIR      59  31  34 N13       30.19R
OKLAHOMA CITY  FAIR      44  24  45 S8        30.17S
ALBUQUERQUE NM MOCLDY    48   3  15 S5        30.15S
SALT LAKE CITY MOCLDY    40  30  67 NW3       30.12F
LOS ANGELES CA FAIR      64  49  57 W18       29.96F
BOISE ID       FAIR      42  27  55 S7        30.00F
SEATTLE WA     LGT RAIN  44  39  82 SW7       29.71F
$$

*** WEATHER ACROSS MANITOBA...SASKATCHEWAN AND ONTARIO ***
                ***ONTARIO***

CITY           SKY/WX    TMP DP  RH WIND       PRES   REMARKS
GERALDTON      CLOUDY    10   7  85 W6        29.72S WCI   1
THUNDER BAY    MOCLDY    14  12  92 W2        29.84S
SIOUX LOOKOUT  CLEAR      1  -2  85 VRB3      29.76F
TORONTO        MOCLDY    30  18  59 NW18      29.81R WCI  18
BIG TROUT LK   FLURRIES  10   5  79 W10       29.66  WCI  -3
PICKLE LAKE    PTCLDY     9   3  78 W10       29.70S WCI  -6
DRYDEN         CLEAR     10   7  85 SW2       29.76F
KENORA         PTCLDY    14  10  85 S2        29.75F
$$
                *** MANITOBA***

CITY           SKY/WX    TMP DP  RH WIND       PRES   REMARKS
BRANDON        MOCLDY    10   5  79 E6        29.69F WCI   1
DAUPHIN        CLEAR     14   9  79 SE7       29.67F WCI   4
ISLAND LAKE    FLURRIES   9   5  85 NW12G18   29.71F WCI  -6
PILOT MOUND      N/A     18  14  86 E8          N/A  WCI   7
THE PAS        CLOUDY     9   1  72 E3        29.69F
THOMPSON       PTCLDY     1  -2  85 W8        29.68F WCI -12
WINNIPEG       PTCLDY    12   9  85 CALM      29.76F
LYNN LAKE      CLEAR     -6  -8  92 NW3       29.66F
CHURCHILL      FLURRIES  19  16  86 N14       29.55R WCI   6
$$
                ***SASKATCHEWAN***

CITY           SKY/WX    TMP DP  RH WIND       PRES   REMARKS
ESTEVAN        PTCLDY    30  21  69 S9        29.56F WCI  22
KINDERSLEY     CLOUDY    32  25  74 SW18      29.30F WCI  20
LLOYDMINSTER   PTCLDY    10   9  92 E10       29.25F WCI  -3
PRINCE ALBERT  CLOUDY    14   9  79 E12G20    29.49F WCI   0
REGINA         MOCLDY    21  18  86 SE9       29.48F WCI  11
YORKTON        PTCLDY    14  10  85 SE9       29.55F WCI   2
N. BATTLEFORD  PTCLDY    12   9  85 E17       29.35F WCI  -5
LA RONGE       LGT SNOW  12   9  85 E10       29.56F WCI  -1
SASKATOON      CLOUDY    18  12  79 E10       29.39F WCI   6
SWIFT CURRENT  CLEAR     36  23  60 SW20G25   29.39F
$$
NOTE: THESE ARE AUTOMATED STATIONS WITH LIMITED QUALITY CONTROL
      "FAIR" INDICATES FEW OR NO CLOUDS BELOW 12,000 FEET WITH NO
      SIGNIFICANT WEATHER AND/OR OBSTRUCTIONS TO VISIBILITY.
      SKY/WX - SKY CONDITION AND SIGNIFICANT WEATHER.
      TMP - AIR TEMPERATURE.    DP   - DEWPOINT TEMPERATURE.
      RH  - RELATIVE HUMIDITY.  PRES - PRESSURE.
      HX  - HEAT INDEX.         WCI  - WIND CHILL INDEX.
$




USA.gov is the U.S. government's official web portal to all federal, state and local government web resources and services.